Tacoma Narrows, WA
on Friday, December 28, 2012

Friday
Previous Day Next Day
Daily Summary
 ActualAverageRecord
Temperature
Mean Temperature °F °F  
Max Temperature 45°F 43°F 53°F (2011)
Min Temperature 37°F 36°F 32°F (1996)
Degree Days
Heating Degree Days 24    
Moisture
Dew Point 35°F   
Average Humidity 78    
Maximum Humidity 93    
Minimum Humidity 70    
Precipitation
Precipitation 0.00 in in in ()
Wind
Wind Speed 1 mph   
Max Wind Speed 4 mph   
Max Gust Speed mph   
Visibility 10 miles   
Events     
Averages and records for this station are not official NWS values.
Key: T is trace of precipitation, MM is missing value
Source: NWS Daily Summary
Seasonal Weather Averages
Time(PST)TemperatureDew PointHumidity Pressure Visibility Wind DirectionWind SpeedGust SpeedPrecipitationEvents Conditions
12:53 AM 41.0°F 33.1°F 73% 30.16 in 10.0 miles East 3.5 mph - N/A   Overcast
1:53 AM 41.0°F 32.0°F 70% 30.16 in 10.0 miles Calm Calm - N/A   Overcast
2:53 AM 41.0°F 33.8°F 76% 30.15 in 10.0 miles Calm Calm - N/A   Overcast
3:53 AM 41.0°F 33.1°F 73% 30.15 in 10.0 miles Calm Calm - N/A   Overcast
4:53 AM 41.0°F 33.1°F 73% 30.14 in 10.0 miles Calm Calm - N/A   Overcast
5:53 AM 39.9°F 32.0°F 73% 30.13 in 10.0 miles Calm Calm - N/A   Mostly Cloudy
6:53 AM 39.0°F 33.1°F 79% 30.13 in 10.0 miles Calm Calm - N/A   Overcast
7:53 AM 39.2°F 32.0°F 75% 30.11 in 10.0 miles Calm Calm - N/A   Overcast
8:53 AM 37.9°F 33.1°F 83% 30.13 in 10.0 miles Calm Calm - N/A   Overcast
9:53 AM 41.0°F 34.0°F 76% 30.14 in 10.0 miles Calm Calm - N/A   Overcast
10:53 AM 42.1°F 34.0°F 73% 30.14 in 10.0 miles Calm Calm - N/A   Clear
11:53 AM 43.0°F 36.0°F 76% 30.13 in 10.0 miles Calm Calm - N/A   Mostly Cloudy
12:53 PM 45.0°F 36.0°F 71% 30.12 in 10.0 miles Calm Calm - N/A   Scattered Clouds
1:53 PM 44.1°F 36.0°F 73% 30.12 in 10.0 miles Calm Calm - N/A   Overcast
2:53 PM 44.1°F 37.0°F 76% 30.12 in 10.0 miles Calm Calm - N/A   Mostly Cloudy
3:53 PM 43.0°F 37.0°F 80% 30.12 in 10.0 miles Calm Calm - N/A   Overcast
4:53 PM 42.8°F 37.4°F 81% 30.12 in 10.0 miles Calm Calm - N/A   Overcast
5:53 PM 42.1°F 36.0°F 79% 30.13 in 10.0 miles WNW 3.5 mph - N/A   Overcast
6:53 PM 42.1°F 36.0°F 79% 30.14 in 10.0 miles Calm Calm - N/A   Overcast
7:53 PM 41.0°F 36.0°F 82% 30.14 in 10.0 miles Calm Calm - N/A   Overcast
8:53 PM 41.0°F 36.0°F 82% 30.14 in 10.0 miles Calm Calm - N/A   Overcast
9:53 PM 41.0°F 36.0°F 82% 30.16 in 10.0 miles Calm Calm - N/A   Overcast
10:53 PM 42.1°F 39.0°F 89% 30.16 in 10.0 miles Calm Calm - N/A   Overcast
11:53 PM 39.0°F 37.0°F 93% 30.16 in 4.0 miles Calm Calm - N/A   Overcast
Moon Phase
Dec. 28 Jan. 04 Jan. 11 Jan. 18 Jan. 26
Sunrise:07:56 AM (PST) Moon Rise:05:13 PM (PST)12/28
Sunset:04:27 PM (PST) Moon Set:07:51 AM (PST)12/28

Copyright © 2014 The Weather Underground, Inc.